Time,TemperatureF,DewpointF,PressureIn,WindDirection,WindDirectionDegrees,WindSpeedMPH,WindSpeedGustMPH,Humidity,HourlyPrecipIn,Conditions,Clouds,dailyrainin,SoftwareType,DateUTC
2013-03-17 00:00:00,68.3,58.1,29.69,South,186,12.0,15.0,70,0.00,,,0.00,Wunderground v.1.15,2013-03-17 05:00:00,
2013-03-17 00:10:00,68.1,58.3,29.69,South,169,11.0,14.0,71,0.00,,,0.00,Wunderground v.1.15,2013-03-17 05:10:00,
2013-03-17 00:15:00,67.9,58.5,29.69,SSW,206,12.0,14.0,72,0.00,,,0.00,Wunderground v.1.15,2013-03-17 05:15:00,
2013-03-17 00:25:00,67.7,58.7,29.69,South,180,13.0,13.0,73,0.00,,,0.00,Wunderground v.1.15,2013-03-17 05:25:00,
2013-03-17 00:30:00,67.6,59.0,29.68,SSW,202,14.0,14.0,74,0.00,,,0.00,Wunderground v.1.15,2013-03-17 05:30:00,
2013-03-17 00:35:00,67.5,59.3,29.68,SSW,205,14.0,14.0,75,0.00,,,0.00,Wunderground v.1.15,2013-03-17 05:35:00,
2013-03-17 00:40:00,67.4,59.2,29.68,SW,221,14.0,14.0,75,0.00,,,0.00,Wunderground v.1.15,2013-03-17 05:40:00,
2013-03-17 00:45:00,67.3,59.5,29.68,South,184,13.0,14.0,76,0.00,,,0.00,Wunderground v.1.15,2013-03-17 05:45:00,
2013-03-17 00:55:00,67.0,59.5,29.68,SSW,194,14.0,16.0,77,0.00,,,0.00,Wunderground v.1.15,2013-03-17 05:55:00,
2013-03-17 01:00:00,66.9,59.8,29.69,SSW,199,14.0,14.0,78,0.00,,,0.00,Wunderground v.1.15,2013-03-17 06:00:00,
2013-03-17 01:10:00,66.8,59.7,29.70,South,191,12.0,18.0,78,0.00,,,0.00,Wunderground v.1.15,2013-03-17 06:10:00,
2013-03-17 01:15:00,66.8,60.1,29.70,South,184,12.0,18.0,79,0.00,,,0.00,Wunderground v.1.15,2013-03-17 06:15:00,
2013-03-17 01:20:00,66.8,60.1,29.70,South,169,12.0,16.0,79,0.00,,,0.00,Wunderground v.1.15,2013-03-17 06:20:00,
2013-03-17 01:25:00,66.8,60.1,29.70,South,180,11.0,16.0,79,0.00,,,0.00,Wunderground v.1.15,2013-03-17 06:25:00,
2013-03-17 01:35:00,66.8,60.1,29.70,SSE,155,10.0,12.0,79,0.00,,,0.00,Wunderground v.1.15,2013-03-17 06:35:00,
2013-03-17 01:40:00,66.9,60.5,29.70,SSW,202,10.0,11.0,80,0.00,,,0.00,Wunderground v.1.15,2013-03-17 06:40:00,
2013-03-17 01:45:00,66.9,60.5,29.70,South,183,10.0,11.0,80,0.00,,,0.00,Wunderground v.1.15,2013-03-17 06:45:00,
2013-03-17 01:50:00,67.0,60.6,29.70,SSE,165,11.0,21.0,80,0.00,,,0.00,Wunderground v.1.15,2013-03-17 06:50:00,
2013-03-17 02:00:00,67.0,60.6,29.69,South,182,12.0,14.0,80,0.00,,,0.00,Wunderground v.1.15,2013-03-17 07:00:00,
2013-03-17 02:10:00,67.0,60.6,29.69,SSE,163,13.0,16.0,80,0.00,,,0.00,Wunderground v.1.15,2013-03-17 07:10:00,
2013-03-17 02:15:00,66.9,60.5,29.69,South,188,13.0,16.0,80,0.00,,,0.00,Wunderground v.1.15,2013-03-17 07:15:00,
2013-03-17 02:20:00,66.9,60.5,29.69,SSE,157,13.0,24.0,80,0.00,,,0.00,Wunderground v.1.15,2013-03-17 07:20:00,
2013-03-17 02:25:00,66.9,60.5,29.69,SSE,161,14.0,24.0,80,0.00,,,0.00,Wunderground v.1.15,2013-03-17 07:25:00,
2013-03-17 02:30:00,66.9,60.5,29.69,South,173,14.0,21.0,80,0.00,,,0.00,Wunderground v.1.15,2013-03-17 07:30:00,
2013-03-17 02:35:00,66.8,60.4,29.69,SSW,192,12.0,21.0,80,0.00,,,0.00,Wunderground v.1.15,2013-03-17 07:35:00,
2013-03-17 02:45:00,66.6,60.6,29.69,SSW,212,14.0,14.0,81,0.00,,,0.00,Wunderground v.1.15,2013-03-17 07:45:00,
2013-03-17 02:50:00,66.5,60.5,29.69,South,171,12.0,12.0,81,0.00,,,0.00,Wunderground v.1.15,2013-03-17 07:50:00,
2013-03-17 02:55:00,66.3,60.3,29.69,SSW,203,11.0,12.0,81,0.00,,,0.00,Wunderground v.1.15,2013-03-17 07:55:00,
2013-03-17 03:00:00,66.2,60.2,29.69,SSW,194,12.0,12.0,81,0.00,,,0.00,Wunderground v.1.15,2013-03-17 08:00:00,
2013-03-17 03:10:00,66.0,60.3,29.69,South,178,11.0,13.0,82,0.00,,,0.00,Wunderground v.1.15,2013-03-17 08:10:00,
2013-03-17 03:15:00,65.9,60.2,29.69,SSW,208,10.0,13.0,82,0.00,,,0.00,Wunderground v.1.15,2013-03-17 08:15:00,
2013-03-17 03:25:00,65.7,60.1,29.69,SSW,192,10.0,13.0,82,0.00,,,0.00,Wunderground v.1.15,2013-03-17 08:25:00,
2013-03-17 03:30:00,65.6,60.0,29.69,SSW,205,9.0,12.0,82,0.00,,,0.00,Wunderground v.1.15,2013-03-17 08:30:00,
2013-03-17 03:35:00,65.5,60.2,29.69,SSW,202,8.0,15.0,83,0.00,,,0.00,Wunderground v.1.15,2013-03-17 08:35:00,
2013-03-17 03:40:00,65.4,60.1,29.69,South,186,8.0,9.0,83,0.00,,,0.00,Wunderground v.1.15,2013-03-17 08:40:00,
2013-03-17 03:50:00,65.2,59.9,29.69,South,191,7.0,7.0,83,0.00,,,0.00,Wunderground v.1.15,2013-03-17 08:50:00,
2013-03-17 03:55:00,65.0,60.0,29.69,South,190,7.0,7.0,84,0.00,,,0.00,Wunderground v.1.15,2013-03-17 08:55:00,
2013-03-17 04:00:00,64.9,59.9,29.69,South,171,8.0,8.0,84,0.00,,,0.00,Wunderground v.1.15,2013-03-17 09:00:00,
2013-03-17 04:10:00,64.8,59.9,29.69,SSW,192,8.0,8.0,84,0.00,,,0.00,Wunderground v.1.15,2013-03-17 09:10:00,
2013-03-17 04:15:00,64.7,59.8,29.69,SSW,203,8.0,14.0,84,0.00,,,0.00,Wunderground v.1.15,2013-03-17 09:15:00,
2013-03-17 04:20:00,64.7,60.1,29.69,SSW,192,8.0,9.0,85,0.00,,,0.00,Wunderground v.1.15,2013-03-17 09:20:00,
2013-03-17 04:30:00,64.7,60.1,29.69,SW,216,7.0,7.0,85,0.00,,,0.00,Wunderground v.1.15,2013-03-17 09:30:00,
2013-03-17 04:35:00,64.8,60.2,29.70,SSW,202,6.0,7.0,85,0.00,,,0.00,Wunderground v.1.15,2013-03-17 09:35:00,
2013-03-17 04:40:00,64.8,60.2,29.70,SSW,202,5.0,5.0,85,0.00,,,0.00,Wunderground v.1.15,2013-03-17 09:40:00,
2013-03-17 04:45:00,64.9,59.9,29.70,South,191,6.0,6.0,84,0.00,,,0.00,Wunderground v.1.15,2013-03-17 09:45:00,
2013-03-17 04:50:00,64.9,59.9,29.70,SSW,206,7.0,7.0,84,0.00,,,0.00,Wunderground v.1.15,2013-03-17 09:50:00,
2013-03-17 05:00:00,65.0,60.0,29.70,SSW,199,5.0,5.0,84,0.00,,,0.00,Wunderground v.1.15,2013-03-17 10:00:00,
2013-03-17 05:10:00,65.0,60.0,29.70,South,189,6.0,6.0,84,0.00,,,0.00,Wunderground v.1.15,2013-03-17 10:10:00,
2013-03-17 05:15:00,64.9,59.9,29.70,South,182,5.0,10.0,84,0.00,,,0.00,Wunderground v.1.15,2013-03-17 10:15:00,
2013-03-17 05:20:00,64.9,59.9,29.70,South,187,5.0,5.0,84,0.00,,,0.00,Wunderground v.1.15,2013-03-17 10:20:00,
2013-03-17 05:25:00,64.9,59.9,29.70,SSE,168,5.0,5.0,84,0.00,,,0.00,Wunderground v.1.15,2013-03-17 10:25:00,
2013-03-17 05:30:00,64.9,59.9,29.70,SSE,165,5.0,5.0,84,0.00,,,0.00,Wunderground v.1.15,2013-03-17 10:30:00,
2013-03-17 05:40:00,64.7,59.8,29.69,SSE,167,6.0,8.0,84,0.00,,,0.00,Wunderground v.1.15,2013-03-17 10:40:00,
2013-03-17 05:45:00,64.6,59.7,29.69,SSE,161,6.0,8.0,84,0.00,,,0.00,Wunderground v.1.15,2013-03-17 10:45:00,
2013-03-17 05:50:00,64.5,59.9,29.69,SSE,164,6.0,7.0,85,0.00,,,0.00,Wunderground v.1.15,2013-03-17 10:50:00,
2013-03-17 05:55:00,64.3,59.7,29.69,SSE,166,7.0,7.0,85,0.00,,,0.00,Wunderground v.1.15,2013-03-17 10:55:00,
2013-03-17 06:00:00,64.2,59.6,29.69,SSE,167,7.0,7.0,85,0.00,,,0.00,Wunderground v.1.15,2013-03-17 11:00:00,
2013-03-17 06:10:00,63.9,59.6,29.69,South,173,5.0,8.0,86,0.00,,,0.00,Wunderground v.1.15,2013-03-17 11:10:00,
2013-03-17 06:15:00,63.8,59.5,29.70,South,181,5.0,8.0,86,0.00,,,0.00,Wunderground v.1.15,2013-03-17 11:15:00,
2013-03-17 06:25:00,63.9,59.6,29.70,SSE,167,6.0,7.0,86,0.00,,,0.00,Wunderground v.1.15,2013-03-17 11:25:00,
2013-03-17 06:30:00,63.9,59.6,29.70,SSE,168,6.0,6.0,86,0.00,,,0.00,Wunderground v.1.15,2013-03-17 11:30:00,
2013-03-17 06:35:00,64.0,59.7,29.70,SSE,167,6.0,6.0,86,0.00,,,0.00,Wunderground v.1.15,2013-03-17 11:35:00,
2013-03-17 06:40:00,64.1,60.2,29.70,South,176,6.0,6.0,87,0.00,,,0.00,Wunderground v.1.15,2013-03-17 11:40:00,
2013-03-17 06:45:00,64.2,60.2,29.70,South,169,7.0,9.0,87,0.00,,,0.00,Wunderground v.1.15,2013-03-17 11:45:00,
2013-03-17 06:55:00,64.3,60.0,29.70,South,178,6.0,10.0,86,0.00,,,0.00,Wunderground v.1.15,2013-03-17 11:55:00,
2013-03-17 07:00:00,64.5,60.2,29.70,SSE,158,7.0,7.0,86,0.00,,,0.00,Wunderground v.1.15,2013-03-17 12:00:00,
2013-03-17 07:10:00,64.7,60.4,29.71,SSE,166,8.0,11.0,86,0.00,,,0.00,Wunderground v.1.15,2013-03-17 12:10:00,
2013-03-17 07:15:00,64.8,60.5,29.71,South,178,9.0,11.0,86,0.00,,,0.00,Wunderground v.1.15,2013-03-17 12:15:00,
2013-03-17 07:20:00,64.8,60.2,29.71,South,173,8.0,10.0,85,0.00,,,0.00,Wunderground v.1.15,2013-03-17 12:20:00,
2013-03-17 07:25:00,64.8,60.2,29.72,SSE,165,7.0,10.0,85,0.00,,,0.00,Wunderground v.1.15,2013-03-17 12:25:00,
2013-03-17 07:35:00,64.8,60.2,29.72,SSE,157,8.0,8.0,85,0.00,,,0.00,Wunderground v.1.15,2013-03-17 12:35:00,
2013-03-17 07:40:00,64.7,60.1,29.72,SSE,159,7.0,7.0,85,0.00,,,0.00,Wunderground v.1.15,2013-03-17 12:40:00,
2013-03-17 07:45:00,64.7,60.1,29.71,SSE,149,6.0,9.0,85,0.00,,,0.00,Wunderground v.1.15,2013-03-17 12:45:00,
2013-03-17 07:50:00,64.7,60.4,29.71,South,175,7.0,7.0,86,0.00,,,0.00,Wunderground v.1.15,2013-03-17 12:50:00,
2013-03-17 07:55:00,64.7,60.4,29.71,SSE,148,7.0,8.0,86,0.00,,,0.00,Wunderground v.1.15,2013-03-17 12:55:00,
2013-03-17 08:00:00,64.7,60.4,29.71,SSE,166,7.0,9.0,86,0.00,,,0.00,Wunderground v.1.15,2013-03-17 13:00:00,
2013-03-17 08:10:00,64.7,60.4,29.71,SE,138,7.0,9.0,86,0.00,,,0.00,Wunderground v.1.15,2013-03-17 13:10:00,
2013-03-17 08:20:00,64.7,60.1,29.72,South,178,7.0,12.0,85,0.00,,,0.00,Wunderground v.1.15,2013-03-17 13:20:00,
2013-03-17 08:25:00,64.8,60.2,29.72,South,171,8.0,12.0,85,0.00,,,0.00,Wunderground v.1.15,2013-03-17 13:25:00,
2013-03-17 08:30:00,64.8,60.2,29.73,WSW,258,6.0,6.0,85,0.00,,,0.00,Wunderground v.1.15,2013-03-17 13:30:00,
2013-03-17 08:35:00,64.8,60.2,29.73,West,268,3.0,6.0,85,0.00,,,0.00,Wunderground v.1.15,2013-03-17 13:35:00,
2013-03-17 08:40:00,64.9,60.3,29.73,West,269,1.0,1.0,85,0.00,,,0.00,Wunderground v.1.15,2013-03-17 13:40:00,
2013-03-17 08:50:00,65.0,60.4,29.73,West,264,1.0,1.0,85,0.00,,,0.00,Wunderground v.1.15,2013-03-17 13:50:00,
2013-03-17 08:55:00,64.4,56.3,29.74,WNW,287,4.0,12.0,75,0.00,,,0.00,Wunderground v.1.15,2013-03-17 13:55:00,
2013-03-17 09:00:00,63.0,53.4,29.75,WNW,300,8.0,8.0,71,0.00,,,0.00,Wunderground v.1.15,2013-03-17 14:00:00,
2013-03-17 09:10:00,61.3,51.8,29.75,NW,315,6.0,10.0,71,0.00,,,0.00,Wunderground v.1.15,2013-03-17 14:10:00,
2013-03-17 09:15:00,60.9,51.0,29.75,NW,304,5.0,10.0,70,0.00,,,0.00,Wunderground v.1.15,2013-03-17 14:15:00,
2013-03-17 09:20:00,60.5,50.7,29.75,NW,311,5.0,5.0,70,0.00,,,0.00,Wunderground v.1.15,2013-03-17 14:20:00,
2013-03-17 09:30:00,60.4,50.6,29.75,NW,318,4.0,4.0,70,0.00,,,0.00,Wunderground v.1.15,2013-03-17 14:30:00,
2013-03-17 09:35:00,60.4,51.3,29.76,NW,318,2.0,4.0,72,0.00,,,0.00,Wunderground v.1.15,2013-03-17 14:35:00,
2013-03-17 09:40:00,60.5,50.7,29.76,NW,317,0.0,0.0,70,0.00,,,0.00,Wunderground v.1.15,2013-03-17 14:40:00,
2013-03-17 09:45:00,60.7,50.9,29.76,NW,317,0.0,0.0,70,0.00,,,0.00,Wunderground v.1.15,2013-03-17 14:45:00,
2013-03-17 09:50:00,60.8,50.6,29.76,WNW,296,2.0,7.0,69,0.00,,,0.00,Wunderground v.1.15,2013-03-17 14:50:00,
2013-03-17 10:00:00,60.9,50.3,29.77,WNW,291,5.0,6.0,68,0.00,,,0.00,Wunderground v.1.15,2013-03-17 15:00:00,
2013-03-17 10:10:00,60.9,50.3,29.77,WNW,295,4.0,4.0,68,0.00,,,0.00,Wunderground v.1.15,2013-03-17 15:10:00,
2013-03-17 10:15:00,61.0,50.4,29.77,West,272,3.0,4.0,68,0.00,,,0.00,Wunderground v.1.15,2013-03-17 15:15:00,
2013-03-17 10:20:00,61.2,50.6,29.77,WNW,292,3.0,3.0,68,0.00,,,0.00,Wunderground v.1.15,2013-03-17 15:20:00,
2013-03-17 10:25:00,61.4,50.7,29.77,WNW,284,3.0,8.0,68,0.00,,,0.00,Wunderground v.1.15,2013-03-17 15:25:00,
2013-03-17 10:30:00,61.5,50.4,29.77,WNW,285,4.0,6.0,67,0.00,,,0.00,Wunderground v.1.15,2013-03-17 15:30:00,
2013-03-17 10:40:00,61.7,50.6,29.77,West,281,6.0,6.0,67,0.00,,,0.00,Wunderground v.1.15,2013-03-17 15:40:00,
2013-03-17 10:45:00,62.1,50.2,29.77,WNW,289,5.0,6.0,65,0.00,,,0.00,Wunderground v.1.15,2013-03-17 15:45:00,
2013-03-17 10:50:00,62.7,50.3,29.77,West,278,4.0,4.0,64,0.00,,,0.00,Wunderground v.1.15,2013-03-17 15:50:00,
2013-03-17 10:55:00,63.1,50.3,29.77,West,271,3.0,4.0,63,0.00,,,0.00,Wunderground v.1.15,2013-03-17 15:55:00,
2013-03-17 11:00:00,63.8,51.0,29.76,West,268,3.0,3.0,63,0.00,,,0.00,Wunderground v.1.15,2013-03-17 16:00:00,
2013-03-17 11:10:00,64.8,51.0,29.76,West,281,1.0,1.0,61,0.00,,,0.00,Wunderground v.1.15,2013-03-17 16:10:00,
2013-03-17 11:15:00,65.1,50.9,29.76,West,281,0.0,1.0,60,0.00,,,0.00,Wunderground v.1.15,2013-03-17 16:15:00,
2013-03-17 11:25:00,67.3,52.0,29.75,West,281,0.0,0.0,58,0.00,,,0.00,Wunderground v.1.15,2013-03-17 16:25:00,
2013-03-17 11:30:00,67.7,51.9,29.75,West,280,0.0,4.0,57,0.00,,,0.00,Wunderground v.1.15,2013-03-17 16:30:00,
2013-03-17 11:35:00,68.3,52.5,29.75,West,277,1.0,4.0,57,0.00,,,0.00,Wunderground v.1.15,2013-03-17 16:35:00,
2013-03-17 11:40:00,68.8,53.4,29.74,West,275,2.0,2.0,58,0.00,,,0.00,Wunderground v.1.15,2013-03-17 16:40:00,
2013-03-17 11:45:00,68.8,52.9,29.74,West,271,1.0,5.0,57,0.00,,,0.00,Wunderground v.1.15,2013-03-17 16:45:00,
2013-03-17 11:55:00,69.2,54.7,29.75,SW,225,3.0,8.0,60,0.00,,,0.00,Wunderground v.1.15,2013-03-17 16:55:00,
2013-03-17 12:00:00,69.1,54.6,29.75,SW,227,3.0,3.0,60,0.00,,,0.00,Wunderground v.1.15,2013-03-17 17:00:00,
2013-03-17 12:10:00,69.9,54.9,29.74,WSW,240,2.0,2.0,59,0.00,,,0.00,Wunderground v.1.15,2013-03-17 17:10:00,
2013-03-17 12:15:00,70.2,54.7,29.74,West,267,3.0,3.0,58,0.00,,,0.00,Wunderground v.1.15,2013-03-17 17:15:00,
2013-03-17 12:20:00,70.4,54.4,29.74,WSW,254,3.0,3.0,57,0.00,,,0.00,Wunderground v.1.15,2013-03-17 17:20:00,
2013-03-17 12:25:00,70.9,55.4,29.74,SW,235,4.0,4.0,58,0.00,,,0.00,Wunderground v.1.15,2013-03-17 17:25:00,
2013-03-17 12:35:00,71.2,55.2,29.73,WSW,239,4.0,4.0,57,0.00,,,0.00,Wunderground v.1.15,2013-03-17 17:35:00,
2013-03-17 12:40:00,71.1,55.1,29.73,West,269,4.0,4.0,57,0.00,,,0.00,Wunderground v.1.15,2013-03-17 17:40:00,
2013-03-17 12:45:00,71.1,55.6,29.73,WNW,282,5.0,7.0,58,0.00,,,0.00,Wunderground v.1.15,2013-03-17 17:45:00,
2013-03-17 12:50:00,71.2,55.2,29.73,WSW,253,6.0,8.0,57,0.00,,,0.00,Wunderground v.1.15,2013-03-17 17:50:00,
2013-03-17 12:55:00,72.0,56.9,29.73,West,261,7.0,8.0,59,0.00,,,0.00,Wunderground v.1.15,2013-03-17 17:55:00,
2013-03-17 13:00:00,72.2,55.1,29.73,SW,229,5.0,5.0,55,0.00,,,0.00,Wunderground v.1.15,2013-03-17 18:00:00,
2013-03-17 13:10:00,72.4,55.8,29.73,SW,229,6.0,6.0,56,0.00,,,0.00,Wunderground v.1.15,2013-03-17 18:10:00,
2013-03-17 13:15:00,72.2,55.1,29.73,West,259,6.0,10.0,55,0.00,,,0.00,Wunderground v.1.15,2013-03-17 18:15:00,
2013-03-17 13:20:00,72.0,55.4,29.72,WSW,240,6.0,6.0,56,0.00,,,0.00,Wunderground v.1.15,2013-03-17 18:20:00,
2013-03-17 13:25:00,71.9,54.9,29.73,West,277,8.0,8.0,55,0.00,,,0.00,Wunderground v.1.15,2013-03-17 18:25:00,
2013-03-17 13:30:00,71.4,53.9,29.72,West,275,7.0,8.0,54,0.00,,,0.00,Wunderground v.1.15,2013-03-17 18:30:00,
2013-03-17 13:35:00,70.5,53.1,29.72,WNW,295,8.0,8.0,54,0.00,,,0.00,Wunderground v.1.15,2013-03-17 18:35:00,
2013-03-17 13:45:00,70.4,53.5,29.72,West,278,6.0,8.0,55,0.00,,,0.00,Wunderground v.1.15,2013-03-17 18:45:00,
2013-03-17 13:50:00,70.5,53.6,29.72,West,261,5.0,5.0,55,0.00,,,0.00,Wunderground v.1.15,2013-03-17 18:50:00,
2013-03-17 13:55:00,70.3,53.4,29.72,WNW,294,5.0,6.0,55,0.00,,,0.00,Wunderground v.1.15,2013-03-17 18:55:00,
2013-03-17 14:00:00,69.5,51.6,29.71,NW,307,7.0,12.0,53,0.00,,,0.00,Wunderground v.1.15,2013-03-17 19:00:00,
2013-03-17 14:10:00,69.6,52.2,29.71,NW,309,8.0,8.0,54,0.00,,,0.00,Wunderground v.1.15,2013-03-17 19:10:00,
2013-03-17 14:15:00,70.2,52.8,29.71,WNW,293,6.0,8.0,54,0.00,,,0.00,Wunderground v.1.15,2013-03-17 19:15:00,
2013-03-17 14:20:00,70.4,52.4,29.70,West,281,6.0,7.0,53,0.00,,,0.00,Wunderground v.1.15,2013-03-17 19:20:00,
2013-03-17 14:30:00,70.7,51.7,29.70,WNW,288,5.0,5.0,51,0.00,,,0.00,Wunderground v.1.15,2013-03-17 19:30:00,
2013-03-17 14:35:00,70.4,51.9,29.70,West,267,5.0,8.0,52,0.00,,,0.00,Wunderground v.1.15,2013-03-17 19:35:00,
2013-03-17 14:40:00,70.4,51.9,29.70,NW,307,5.0,5.0,52,0.00,,,0.00,Wunderground v.1.15,2013-03-17 19:40:00,
2013-03-17 14:45:00,70.4,51.9,29.69,WNW,295,6.0,6.0,52,0.00,,,0.00,Wunderground v.1.15,2013-03-17 19:45:00,
2013-03-17 14:50:00,71.0,52.5,29.69,WNW,284,6.0,6.0,52,0.00,,,0.00,Wunderground v.1.15,2013-03-17 19:50:00,
2013-03-17 15:00:00,71.2,52.1,29.68,WNW,295,4.0,4.0,51,0.00,,,0.00,Wunderground v.1.15,2013-03-17 20:00:00,
2013-03-17 15:10:00,71.3,52.2,29.68,NW,309,3.0,6.0,51,0.00,,,0.00,Wunderground v.1.15,2013-03-17 20:10:00,
2013-03-17 15:15:00,71.8,53.2,29.68,NW,307,5.0,6.0,52,0.00,,,0.00,Wunderground v.1.15,2013-03-17 20:15:00,
2013-03-17 15:20:00,71.4,52.9,29.68,West,273,6.0,12.0,52,0.00,,,0.00,Wunderground v.1.15,2013-03-17 20:20:00,
2013-03-17 15:25:00,71.3,53.3,29.68,NW,313,6.0,12.0,53,0.00,,,0.00,Wunderground v.1.15,2013-03-17 20:25:00,
2013-03-17 15:30:00,72.4,53.2,29.68,WNW,301,5.0,5.0,51,0.00,,,0.00,Wunderground v.1.15,2013-03-17 20:30:00,
2013-03-17 15:40:00,71.3,53.3,29.67,WSW,243,5.0,5.0,53,0.00,,,0.00,Wunderground v.1.15,2013-03-17 20:40:00,
2013-03-17 15:45:00,71.2,53.2,29.67,WNW,285,6.0,8.0,53,0.00,,,0.00,Wunderground v.1.15,2013-03-17 20:45:00,
2013-03-17 15:50:00,71.2,53.7,29.67,SW,225,6.0,6.0,54,0.00,,,0.00,Wunderground v.1.15,2013-03-17 20:50:00,
2013-03-17 15:55:00,71.3,53.3,29.67,WSW,238,6.0,6.0,53,0.00,,,0.00,Wunderground v.1.15,2013-03-17 20:55:00,
2013-03-17 16:00:00,71.3,53.3,29.66,NNW,331,5.0,5.0,53,0.00,,,0.00,Wunderground v.1.15,2013-03-17 21:00:00,
2013-03-17 16:10:00,71.2,53.2,29.66,WSW,248,6.0,6.0,53,0.00,,,0.00,Wunderground v.1.15,2013-03-17 21:10:00,
2013-03-17 16:20:00,73.0,54.3,29.66,WSW,240,6.0,13.0,52,0.00,,,0.00,Wunderground v.1.15,2013-03-17 21:20:00,
2013-03-17 16:25:00,72.1,53.5,29.65,WSW,254,6.0,13.0,52,0.00,,,0.00,Wunderground v.1.15,2013-03-17 21:25:00,
2013-03-17 16:30:00,72.0,53.9,29.66,WSW,256,6.0,10.0,53,0.00,,,0.00,Wunderground v.1.15,2013-03-17 21:30:00,
2013-03-17 16:35:00,72.6,54.0,29.65,WSW,246,6.0,10.0,52,0.00,,,0.00,Wunderground v.1.15,2013-03-17 21:35:00,
2013-03-17 16:40:00,72.8,53.6,29.65,WSW,252,7.0,11.0,51,0.00,,,0.00,Wunderground v.1.15,2013-03-17 21:40:00,
2013-03-17 16:50:00,73.3,54.6,29.65,SW,215,6.0,10.0,52,0.00,,,0.00,Wunderground v.1.15,2013-03-17 21:50:00,
2013-03-17 16:55:00,73.6,54.9,29.65,WSW,243,7.0,10.0,52,0.00,,,0.00,Wunderground v.1.15,2013-03-17 21:55:00,
2013-03-17 17:00:00,74.0,54.2,29.65,WSW,250,6.0,6.0,50,0.00,,,0.00,Wunderground v.1.15,2013-03-17 22:00:00,
2013-03-17 17:10:00,73.9,54.1,29.65,West,263,7.0,10.0,50,0.00,,,0.00,Wunderground v.1.15,2013-03-17 22:10:00,
2013-03-17 17:15:00,73.5,54.3,29.65,West,277,8.0,11.0,51,0.00,,,0.00,Wunderground v.1.15,2013-03-17 22:15:00,
2013-03-17 17:20:00,73.6,54.4,29.65,West,275,8.0,9.0,51,0.00,,,0.00,Wunderground v.1.15,2013-03-17 22:20:00,
2013-03-17 17:25:00,74.0,53.6,29.65,West,271,7.0,9.0,49,0.00,,,0.00,Wunderground v.1.15,2013-03-17 22:25:00,
2013-03-17 17:35:00,73.5,53.7,29.65,West,273,8.0,9.0,50,0.00,,,0.00,Wunderground v.1.15,2013-03-17 22:35:00,
2013-03-17 17:40:00,73.5,54.3,29.65,WSW,247,7.0,10.0,51,0.00,,,0.00,Wunderground v.1.15,2013-03-17 22:40:00,
2013-03-17 17:45:00,73.5,53.7,29.65,WSW,256,6.0,10.0,50,0.00,,,0.00,Wunderground v.1.15,2013-03-17 22:45:00,
2013-03-17 17:50:00,73.6,53.8,29.65,WSW,255,6.0,6.0,50,0.00,,,0.00,Wunderground v.1.15,2013-03-17 22:50:00,
2013-03-17 18:00:00,73.5,53.7,29.65,West,265,7.0,7.0,50,0.00,,,0.00,Wunderground v.1.15,2013-03-17 23:00:00,
2013-03-17 18:10:00,73.6,53.8,29.65,WSW,252,6.0,11.0,50,0.00,,,0.00,Wunderground v.1.15,2013-03-17 23:10:00,
2013-03-17 18:15:00,73.4,53.6,29.65,WSW,247,7.0,11.0,50,0.00,,,0.00,Wunderground v.1.15,2013-03-17 23:15:00,
2013-03-17 18:20:00,73.3,54.1,29.65,West,279,5.0,7.0,51,0.00,,,0.00,Wunderground v.1.15,2013-03-17 23:20:00,
2013-03-17 18:25:00,73.3,53.5,29.64,WSW,240,5.0,7.0,50,0.00,,,0.00,Wunderground v.1.15,2013-03-17 23:25:00,
2013-03-17 18:30:00,73.2,53.4,29.64,WSW,255,5.0,7.0,50,0.00,,,0.00,Wunderground v.1.15,2013-03-17 23:30:00,
2013-03-17 18:35:00,73.1,53.4,29.64,WSW,258,4.0,7.0,50,0.00,,,0.00,Wunderground v.1.15,2013-03-17 23:35:00,
2013-03-17 18:45:00,72.9,53.2,29.64,SW,236,3.0,6.0,50,0.00,,,0.00,Wunderground v.1.15,2013-03-17 23:45:00,
2013-03-17 18:50:00,72.7,53.5,29.64,WSW,239,4.0,4.0,51,0.00,,,0.00,Wunderground v.1.15,2013-03-17 23:50:00,
2013-03-17 18:55:00,72.5,52.8,29.64,West,281,3.0,7.0,50,0.00,,,0.00,Wunderground v.1.15,2013-03-17 23:55:00,
2013-03-17 19:00:00,72.3,53.2,29.64,West,273,4.0,5.0,51,0.00,,,0.00,Wunderground v.1.15,2013-03-18 00:00:00,
2013-03-17 19:10:00,71.7,53.1,29.65,West,259,4.0,5.0,52,0.00,,,0.00,Wunderground v.1.15,2013-03-18 00:10:00,
2013-03-17 19:15:00,71.1,52.6,29.65,WSW,256,4.0,5.0,52,0.00,,,0.00,Wunderground v.1.15,2013-03-18 00:15:00,
2013-03-17 19:25:00,70.1,52.2,29.65,WSW,254,4.0,7.0,53,0.00,,,0.00,Wunderground v.1.15,2013-03-18 00:25:00,
2013-03-17 19:30:00,69.8,52.4,29.65,WSW,257,4.0,4.0,54,0.00,,,0.00,Wunderground v.1.15,2013-03-18 00:30:00,
2013-03-17 19:35:00,69.4,52.5,29.65,WSW,257,3.0,4.0,55,0.00,,,0.00,Wunderground v.1.15,2013-03-18 00:35:00,
2013-03-17 19:40:00,69.2,52.3,29.65,West,265,1.0,1.0,55,0.00,,,0.00,Wunderground v.1.15,2013-03-18 00:40:00,
2013-03-17 19:50:00,68.6,52.3,29.65,West,261,0.0,0.0,56,0.00,,,0.00,Wunderground v.1.15,2013-03-18 00:50:00,
2013-03-17 19:55:00,68.4,52.1,29.65,West,261,0.0,0.0,56,0.00,,,0.00,Wunderground v.1.15,2013-03-18 00:55:00,
2013-03-17 20:00:00,68.1,52.3,29.65,West,261,0.0,0.0,57,0.00,,,0.00,Wunderground v.1.15,2013-03-18 01:00:00,
2013-03-17 20:10:00,67.6,52.3,29.65,West,261,0.0,0.0,58,0.00,,,0.00,Wunderground v.1.15,2013-03-18 01:10:00,
2013-03-17 20:15:00,67.3,52.0,29.65,West,261,0.0,0.0,58,0.00,,,0.00,Wunderground v.1.15,2013-03-18 01:15:00,
2013-03-17 20:20:00,67.0,52.2,29.65,West,261,0.0,0.0,59,0.00,,,0.00,Wunderground v.1.15,2013-03-18 01:20:00,
2013-03-17 20:25:00,66.6,52.7,29.65,West,261,0.0,0.0,61,0.00,,,0.00,Wunderground v.1.15,2013-03-18 01:25:00,
2013-03-17 20:35:00,65.8,52.0,29.65,West,261,0.0,0.0,61,0.00,,,0.00,Wunderground v.1.15,2013-03-18 01:35:00,
2013-03-17 20:40:00,65.3,51.9,29.65,West,261,0.0,0.0,62,0.00,,,0.00,Wunderground v.1.15,2013-03-18 01:40:00,
2013-03-17 20:45:00,64.9,52.0,29.65,West,261,0.0,0.0,63,0.00,,,0.00,Wunderground v.1.15,2013-03-18 01:45:00,
2013-03-17 20:50:00,64.4,51.5,29.66,West,261,0.0,0.0,63,0.00,,,0.00,Wunderground v.1.15,2013-03-18 01:50:00,
2013-03-17 20:55:00,64.1,51.7,29.66,West,261,0.0,0.0,64,0.00,,,0.00,Wunderground v.1.15,2013-03-18 01:55:00,
2013-03-17 21:00:00,63.8,51.4,29.66,West,261,0.0,0.0,64,0.00,,,0.00,Wunderground v.1.15,2013-03-18 02:00:00,
2013-03-17 21:10:00,63.3,50.9,29.66,West,261,0.0,0.0,64,0.00,,,0.00,Wunderground v.1.15,2013-03-18 02:10:00,
2013-03-17 21:15:00,63.1,50.7,29.65,West,261,0.0,0.0,64,0.00,,,0.00,Wunderground v.1.15,2013-03-18 02:15:00,
2013-03-17 21:20:00,62.8,50.4,29.66,West,261,0.0,0.0,64,0.00,,,0.00,Wunderground v.1.15,2013-03-18 02:20:00,
2013-03-17 21:25:00,62.5,50.2,29.66,West,261,0.0,0.0,64,0.00,,,0.00,Wunderground v.1.15,2013-03-18 02:25:00,
2013-03-17 21:30:00,62.2,49.9,29.66,West,261,0.0,0.0,64,0.00,,,0.00,Wunderground v.1.15,2013-03-18 02:30:00,
2013-03-17 21:35:00,62.0,49.7,29.67,West,261,0.0,0.0,64,0.00,,,0.00,Wunderground v.1.15,2013-03-18 02:35:00,
2013-03-17 21:45:00,61.6,49.3,29.67,West,261,0.0,0.0,64,0.00,,,0.00,Wunderground v.1.15,2013-03-18 02:45:00,
2013-03-17 21:50:00,61.6,49.3,29.67,West,261,0.0,3.0,64,0.00,,,0.00,Wunderground v.1.15,2013-03-18 02:50:00,
2013-03-17 21:55:00,61.7,49.0,29.67,West,276,0.0,3.0,63,0.00,,,0.00,Wunderground v.1.15,2013-03-18 02:55:00,
2013-03-17 22:00:00,61.9,48.7,29.68,WNW,293,0.0,0.0,62,0.00,,,0.00,Wunderground v.1.15,2013-03-18 03:00:00,
2013-03-17 22:10:00,62.3,49.1,29.69,NW,315,2.0,2.0,62,0.00,,,0.00,Wunderground v.1.15,2013-03-18 03:10:00,
2013-03-17 22:15:00,62.5,48.9,29.69,NW,319,5.0,8.0,61,0.00,,,0.00,Wunderground v.1.15,2013-03-18 03:15:00,
2013-03-17 22:20:00,62.9,49.2,29.69,NW,321,5.0,5.0,61,0.00,,,0.00,Wunderground v.1.15,2013-03-18 03:20:00,
2013-03-17 22:30:00,62.9,49.2,29.69,NW,322,0.0,0.0,61,0.00,,,0.00,Wunderground v.1.15,2013-03-18 03:30:00,
2013-03-17 22:35:00,62.7,49.1,29.69,NNW,344,1.0,7.0,61,0.00,,,0.00,Wunderground v.1.15,2013-03-18 03:35:00,
2013-03-17 22:40:00,62.6,49.0,29.69,NNW,345,2.0,8.0,61,0.00,,,0.00,Wunderground v.1.15,2013-03-18 03:40:00,
2013-03-17 22:50:00,62.3,49.1,29.69,North,355,2.0,2.0,62,0.00,,,0.00,Wunderground v.1.15,2013-03-18 03:50:00,
2013-03-17 22:55:00,62.1,49.4,29.69,North,355,0.0,2.0,63,0.00,,,0.00,Wunderground v.1.15,2013-03-18 03:55:00,
2013-03-17 23:00:00,61.8,49.5,29.69,North,355,0.0,0.0,64,0.00,,,0.00,Wunderground v.1.15,2013-03-18 04:00:00,
2013-03-17 23:05:00,61.5,49.2,29.69,North,355,0.0,0.0,64,0.00,,,0.00,Wunderground v.1.15,2013-03-18 04:05:00,
2013-03-17 23:10:00,61.2,49.3,29.68,North,355,0.0,0.0,65,0.00,,,0.00,Wunderground v.1.15,2013-03-18 04:10:00,
2013-03-17 23:15:00,60.8,49.4,29.68,North,355,0.0,0.0,66,0.00,,,0.00,Wunderground v.1.15,2013-03-18 04:15:00,
2013-03-17 23:20:00,60.5,49.1,29.69,North,355,0.0,0.0,66,0.00,,,0.00,Wunderground v.1.15,2013-03-18 04:20:00,
2013-03-17 23:25:00,60.2,49.2,29.69,North,355,0.0,0.0,67,0.00,,,0.00,Wunderground v.1.15,2013-03-18 04:25:00,
2013-03-17 23:35:00,59.6,49.0,29.69,North,355,0.0,0.0,68,0.00,,,0.00,Wunderground v.1.15,2013-03-18 04:35:00,
2013-03-17 23:40:00,59.3,49.1,29.69,North,355,0.0,0.0,69,0.00,,,0.00,Wunderground v.1.15,2013-03-18 04:40:00,
2013-03-17 23:45:00,59.1,48.9,29.68,North,355,0.0,0.0,69,0.00,,,0.00,Wunderground v.1.15,2013-03-18 04:45:00,
2013-03-17 23:50:00,58.9,48.7,29.68,North,355,0.0,0.0,69,0.00,,,0.00,Wunderground v.1.15,2013-03-18 04:50:00,
2013-03-17 23:55:00,58.6,48.8,29.67,North,355,0.0,0.0,70,0.00,,,0.00,Wunderground v.1.15,2013-03-18 04:55:00,